Terminal Aerodrome Forecast
Issued by NWS

Home | Current Version | Previous Version | Text Only | Print | Product List | Glossary On
Versions: 1 2 3 4 5 6 7 8 9 10 11 12 13
000
FTUS43 KOAX 280533
TAFBFF
TAF
KBFF 280533Z 2806/2906 29008KT P6SM SCT250
     FM280900 29012G20KT P6SM BKN200
     FM281600 32025G35KT P6SM BKN100
      AMD NOT SKED=

USA.gov is the U.S. government's official web portal to all federal, state and local government web resources and services.